TimeCDT,TemperatureF,Dew PointF,Humidity,Sea Level PressureIn,VisibilityMPH,Wind Direction,Wind SpeedMPH,Gust SpeedMPH,PrecipitationIn,Events,Conditions,WindDirDegrees,DateUTC
12:52 AM,66.0,61.0,84,30.02,10.0,SE,4.6,-,N/A,,Clear,140,2013-08-19 05:52:00
1:52 AM,63.0,61.0,93,30.03,10.0,ESE,6.9,-,N/A,,Clear,120,2013-08-19 06:52:00
2:52 AM,64.0,61.0,90,30.01,8.0,ESE,4.6,-,N/A,,Overcast,110,2013-08-19 07:52:00
3:52 AM,64.0,61.0,90,30.02,7.0,ESE,8.1,-,N/A,,Mostly Cloudy,110,2013-08-19 08:52:00
4:52 AM,63.0,61.0,93,30.01,5.0,SE,8.1,-,N/A,,Scattered Clouds,140,2013-08-19 09:52:00
5:52 AM,63.0,61.0,93,30.00,6.0,ESE,8.1,-,N/A,,Partly Cloudy,120,2013-08-19 10:52:00
6:52 AM,64.0,62.1,93,30.00,5.0,SE,8.1,-,N/A,,Mostly Cloudy,130,2013-08-19 11:52:00
7:52 AM,64.9,62.1,90,30.00,6.0,SE,8.1,-,N/A,,Mostly Cloudy,140,2013-08-19 12:52:00
8:52 AM,69.1,64.0,84,29.99,8.0,SSE,6.9,-,N/A,,Partly Cloudy,150,2013-08-19 13:52:00
9:52 AM,75.9,66.0,71,29.98,10.0,South,10.4,18.4,N/A,,Clear,180,2013-08-19 14:52:00
10:52 AM,78.1,66.9,68,29.98,10.0,SSW,12.7,-,N/A,,Partly Cloudy,200,2013-08-19 15:52:00
11:52 AM,81.0,68.0,65,29.96,10.0,South,18.4,23.0,N/A,,Clear,190,2013-08-19 16:52:00
12:52 PM,82.9,69.1,63,29.94,10.0,SSW,13.8,-,N/A,,Clear,210,2013-08-19 17:52:00
1:52 PM,84.9,70.0,61,29.94,10.0,SSW,13.8,23.0,N/A,,Clear,200,2013-08-19 18:52:00
2:52 PM,86.0,70.0,59,29.92,10.0,South,13.8,-,N/A,,Clear,190,2013-08-19 19:52:00
3:52 PM,86.0,70.0,59,29.91,10.0,South,12.7,21.9,N/A,,Clear,190,2013-08-19 20:52:00
4:52 PM,87.1,70.0,57,29.89,10.0,SSW,13.8,23.0,N/A,,Clear,200,2013-08-19 21:52:00
5:52 PM,86.0,70.0,59,29.89,10.0,South,15.0,-,N/A,,Clear,190,2013-08-19 22:52:00
6:52 PM,84.0,70.0,63,29.88,10.0,South,10.4,-,N/A,,Clear,190,2013-08-19 23:52:00
7:52 PM,81.0,69.1,67,29.89,10.0,South,6.9,-,N/A,,Clear,180,2013-08-20 00:52:00
8:52 PM,80.1,70.0,71,29.89,10.0,SSE,6.9,-,N/A,,Overcast,150,2013-08-20 01:52:00
9:52 PM,77.0,69.1,76,29.90,10.0,SSE,8.1,-,N/A,,Clear,150,2013-08-20 02:52:00
10:52 PM,75.0,69.1,82,29.90,10.0,SE,9.2,-,N/A,,Overcast,140,2013-08-20 03:52:00
11:52 PM,73.9,69.1,85,29.89,10.0,SSE,8.1,-,N/A,,Mostly Cloudy,150,2013-08-20 04:52:00